DW2380 Paimio FI current weather conditions

sailwx.info

Wind from 360 at 2 knots gusting 13

Air temperature 14.4° C
Dewpoint 6.8° C

Last reported at 2017-Jun-23 10:06 UTC.
Time now 2017-Jun-23 10:33 UTC

Location: N 60°28' E 022°40'.
View on Google Maps.

See reports from other nearby stations

  
Tides and Currents Weather Stations Pressure Air Temp Water Temp Dewpoint Dewpoint Depression Visibility Wind Speed Wind Dir Waves Ship Positions
date/time (UTC)wind fromknots sea level pressurealtimeterstation pressurevisibilityair tempwater tempwave heightnotes
2017-Jun-23 10:06 360 2 gusting 13 14.4
2017-Jun-23 09:56 360 4 gusting 11 13.9
2017-Jun-23 09:50 360 5 gusting 12 13.9
2017-Jun-23 09:42 360 3 gusting 7 13.3
2017-Jun-23 09:35 360 4 gusting 8 12.8
2017-Jun-23 09:27 360 4 gusting 10 12.2
2017-Jun-23 09:19 360 6 gusting 13 11.7
2017-Jun-23 09:12 360 3 gusting 6 11.7
2017-Jun-23 09:04 360 4 gusting 7 11.1
2017-Jun-23 08:57 360 3 gusting 10 10.6
2017-Jun-23 08:50 360 4 gusting 7 10.6
2017-Jun-23 08:43 011 3 gusting 9 10.0
2017-Jun-23 08:32 360 1 gusting 7 9.4
2017-Jun-23 08:25 015 5 gusting 7 8.9
2017-Jun-23 08:14 360 2 gusting 7 8.9
2017-Jun-23 08:06 360 3 gusting 7 8.3
2017-Jun-23 07:57 360 4 gusting 7 7.8
2017-Jun-23 07:49 360 4 gusting 9 7.2
2017-Jun-23 07:41 360 5 gusting 8 6.7
2017-Jun-23 07:32 360 1 gusting 5 6.1
2017-Jun-23 07:24 360 0 gusting 5 5.6
2017-Jun-23 07:15 360 4.4
2017-Jun-23 07:05 360 3.9
2017-Jun-23 06:55 360 2.8
2017-Jun-23 06:43 360 2.8
2017-Jun-23 06:31 360 2.8
2017-Jun-23 06:20 360 2.8
2017-Jun-23 06:07 360 2.8
2017-Jun-23 05:55 360 3.3
2017-Jun-23 05:43 360 3.3
2017-Jun-23 03:20 317 3.9
2017-Jun-23 00:31 317 4.4
2017-Jun-23 00:16 316 5.0
2017-Jun-22 23:16 360 6.1
2017-Jun-22 23:01 360 1 gusting 4 6.1
2017-Jun-22 22:46 360 6.7
2017-Jun-22 22:31 360 7.2
2017-Jun-22 22:16 360 7.2
2017-Jun-22 21:59 360 7.8
2017-Jun-22 21:44 360 1 gusting 6 7.8
2017-Jun-22 21:29 360 1 gusting 5 8.3
2017-Jun-22 21:14 360 2 gusting 6 8.3
2017-Jun-22 20:59 360 3 gusting 6 8.9
2017-Jun-22 20:43 360 3 gusting 6 8.9
2017-Jun-22 20:28 360 1 gusting 6 9.4
2017-Jun-22 20:13 360 3 gusting 8 10.0
2017-Jun-22 19:58 360 1 gusting 4 10.6
2017-Jun-22 19:43 360 3 gusting 11 10.6
2017-Jun-22 19:28 360 3 gusting 11 11.1
2017-Jun-22 19:13 360 3 gusting 9 11.7
2017-Jun-22 18:57 360 5 gusting 10 11.7
2017-Jun-22 18:42 360 4 gusting 13 12.2
2017-Jun-22 18:27 360 6 gusting 13 12.8
2017-Jun-22 18:12 360 4 gusting 14 12.8
2017-Jun-22 17:57 360 6 gusting 14 13.3
2017-Jun-22 17:42 360 7 gusting 12 13.9
2017-Jun-22 17:27 360 6 gusting 11 13.9
2017-Jun-22 17:12 360 6 gusting 18 14.4
2017-Jun-22 16:56 360 7 gusting 15 15.0
2017-Jun-22 16:41 360 2 gusting 11 15.6
2017-Jun-22 16:26 360 6 gusting 13 15.0
2017-Jun-22 16:11 360 7 gusting 16 15.0
2017-Jun-22 15:56 360 6 gusting 15 14.4
2017-Jun-22 15:41 360 6 gusting 14 14.4
2017-Jun-22 15:26 360 6 gusting 13 15.0
2017-Jun-22 15:11 360 3 gusting 11 15.6
2017-Jun-22 14:56 360 8 gusting 16 16.7
2017-Jun-22 14:41 360 8 gusting 17 16.1
2017-Jun-22 14:26 360 9 gusting 18 16.1
2017-Jun-22 14:11 360 5 gusting 13 16.1
2017-Jun-22 13:56 360 6 gusting 13 15.6
2017-Jun-22 13:41 360 8 gusting 13 15.6
2017-Jun-22 13:25 360 6 gusting 12 16.1
2017-Jun-22 13:09 360 10 gusting 18 16.7
2017-Jun-22 12:54 360 10 gusting 17 16.7
2017-Jun-22 12:39 360 10 gusting 16 16.7
2017-Jun-22 12:24 360 7 gusting 14 16.1
2017-Jun-22 12:08 360 6 gusting 19 16.7
2017-Jun-22 11:54 360 9 gusting 15 16.7
2017-Jun-22 11:38 360 9 gusting 19 16.7
2017-Jun-22 11:23 360 10 gusting 17 16.7
2017-Jun-22 11:08 360 7 gusting 14 16.1
2017-Jun-22 10:53 360 6 gusting 13 16.1
2017-Jun-22 10:38 360 7 gusting 16 16.7
2017-Jun-22 10:22 360 7 gusting 19 16.1
2017-Jun-22 10:07 360 6 gusting 13 16.1
2017-Jun-22 09:52 360 6 gusting 17 16.1
2017-Jun-22 09:37 360 5 gusting 13 16.7
2017-Jun-22 09:22 360 6 gusting 14 16.7
2017-Jun-22 09:07 360 9 gusting 16 16.1
2017-Jun-22 08:52 360 6 gusting 13 16.1
2017-Jun-22 08:36 360 7 gusting 14 15.6
2017-Jun-22 08:21 360 3 gusting 14 15.0
2017-Jun-22 08:06 360 4 gusting 16 14.4
2017-Jun-22 07:51 360 6 gusting 13 14.4
2017-Jun-22 07:36 360 8 gusting 15 15.0
2017-Jun-22 07:21 360 6 gusting 13 14.4
2017-Jun-22 07:06 360 6 gusting 14 13.9
2017-Jun-22 06:51 360 6 gusting 13 14.4
2017-Jun-22 06:36 360 6 gusting 11 14.4
2017-Jun-22 06:21 360 6 gusting 13 13.9
2017-Jun-22 06:06 360 6 gusting 11 13.9
2017-Jun-22 05:51 360 4 gusting 8 13.9
2017-Jun-22 05:34 360 4 gusting 7 13.3
2017-Jun-22 05:19 360 5 gusting 11 12.8
2017-Jun-22 05:04 360 3 gusting 11 12.2
2017-Jun-22 04:49 360 6 gusting 12 12.2
2017-Jun-22 04:34 360 2 gusting 6 11.7
2017-Jun-22 04:18 360 3 gusting 11 11.1
2017-Jun-22 04:03 360 4 gusting 10 11.1
2017-Jun-22 03:48 360 3 gusting 9 10.6
2017-Jun-22 03:34 360 5 gusting 9 10.6
2017-Jun-22 03:18 360 3 gusting 7 10.0
2017-Jun-22 03:03 360 2 gusting 5 8.9
2017-Jun-22 02:47 360 1 gusting 5 8.3
2017-Jun-22 02:32 360 2 gusting 4 7.8
2017-Jun-22 02:17 360 7.8
2017-Jun-22 02:02 360 1 gusting 3 7.8
2017-Jun-22 01:47 360 1 gusting 5 7.8
2017-Jun-22 01:31 360 2 gusting 4 7.8
2017-Jun-22 01:16 360 2 gusting 4 7.8
2017-Jun-22 01:01 360 1 gusting 5 7.8
2017-Jun-22 00:46 360 2 gusting 6 8.3
2017-Jun-22 00:31 360 1 gusting 5 8.3
2017-Jun-22 00:16 360 3 gusting 6 7.8
2017-Jun-22 00:01 360 2 gusting 6 7.8
2017-Jun-21 23:46 360 2 gusting 5 8.3
2017-Jun-21 23:31 360 1 gusting 5 8.3
2017-Jun-21 23:16 360 2 gusting 5 8.3
2017-Jun-21 23:01 360 2 gusting 6 8.3
2017-Jun-21 22:46 360 2 gusting 6 8.9
2017-Jun-21 22:31 360 2 gusting 6 8.9
2017-Jun-21 22:15 360 3 gusting 8 8.9
2017-Jun-21 21:59 360 2 gusting 6 9.4
2017-Jun-21 21:44 360 3 gusting 6 9.4
2017-Jun-21 21:29 360 4 gusting 9 9.4
2017-Jun-21 21:14 360 3 gusting 7 9.4
2017-Jun-21 20:59 360 3 gusting 6 9.4
2017-Jun-21 20:43 360 2 gusting 5 10.0
2017-Jun-21 20:28 360 0 gusting 4 10.6
2017-Jun-21 20:13 360 2 gusting 3 11.1
2017-Jun-21 19:58 360 11.1
2017-Jun-21 19:43 360 1 gusting 4 11.7
2017-Jun-21 19:28 360 1 gusting 5 12.2
2017-Jun-21 19:12 360 1 gusting 5 12.8
2017-Jun-21 18:57 360 4 gusting 6 13.3
2017-Jun-21 18:43 360 3 gusting 7 13.3
2017-Jun-21 18:27 360 7 gusting 13 13.9
2017-Jun-21 18:13 360 6 gusting 16 13.9
2017-Jun-21 17:57 360 6 gusting 15 14.4
2017-Jun-21 17:42 360 7 gusting 19 15.0
2017-Jun-21 17:27 360 6 gusting 14 15.6
2017-Jun-21 17:11 360 8 gusting 17 15.6
2017-Jun-21 16:57 360 4 gusting 15 15.6
2017-Jun-21 16:41 360 5 gusting 13 15.6
2017-Jun-21 16:26 360 9 gusting 18 15.0
2017-Jun-21 16:11 360 5 gusting 9 14.4
2017-Jun-21 15:56 360 5 gusting 12 15.0
2017-Jun-21 15:41 360 3 gusting 9 15.0
2017-Jun-21 15:26 360 2 gusting 10 15.0
2017-Jun-21 15:11 360 7 gusting 13 15.6
2017-Jun-21 14:56 360 3 gusting 14 15.6
2017-Jun-21 14:41 360 3 gusting 12 15.6
2017-Jun-21 14:26 360 5 gusting 13 15.0
2017-Jun-21 14:11 360 6 gusting 11 14.4
2017-Jun-21 13:56 360 6 gusting 12 15.0
2017-Jun-21 13:39 360 4 gusting 12 15.0
2017-Jun-21 13:24 360 8 gusting 15 16.1
2017-Jun-21 13:09 360 9 gusting 20 16.7
2017-Jun-21 12:54 360 7 gusting 17 16.7
2017-Jun-21 12:39 360 10 gusting 19 16.1
2017-Jun-21 12:23 360 11 gusting 20 16.1
2017-Jun-21 12:08 360 14 gusting 22 16.1
2017-Jun-21 11:53 360 7 gusting 15 15.6
2017-Jun-21 11:38 360 6 gusting 12 15.6
2017-Jun-21 11:23 360 9 gusting 18 16.1
2017-Jun-21 11:08 360 10 gusting 19 16.1
2017-Jun-21 10:53 360 7 gusting 16 15.6
2017-Jun-21 10:37 360 9 gusting 13 15.0